Centralia, IL

12:41 AM CDT on September 20, 2019 (GMT -0500)
Centralia Municipal

Weather History for KENL - August, 2019

Change the Weather History Date:

Saturday, August 24, 2019

  Actual Average (WUND) Record (WUND)
Temperature  
Mean Temperature 68 °F -  
Max Temperature 77 °F - - (-1)
Min Temperature 60 °F - - (-1)
Cooling Degree Days 4    
Growing Degree Days 18 (Base 50)    
Moisture  
Dew Point 59 °F    
Average Humidity 74    
Maximum Humidity 94    
Minimum Humidity 47    
Precipitation  
Precipitation 0.00 in - - ()
Sea Level Pressure  
Sea Level Pressure 30.13 in    
Wind  
Wind Speed 5 mph ()    
Max Wind Speed 14 mph    
Max Gust Speed 20 mph    
Visibility 10.0 miles    
Events      
Averages and records for this station are not official NWS values.
T = Trace of Precipitation, MM = Missing Value Source: Averaged Metar Reports

Daily Weather History Graph

Daily Weather History Graph

Search for Another Location

Airport or City:

Astronomy

Aug. 24, 2019 Rise Set
Actual Time 6:18 AM CDT 7:38 PM CDT
Civil Twilight 5:50 AM CDT 8:05 PM CDT
Nautical Twilight 5:17 AM CDT 8:38 PM CDT
Astronomical Twilight 4:42 AM CDT 9:13 PM CDT
Moon 12:12 AM CDT (8/24) 2:52 PM CDT (8/24)
Length of Visible Light 14h 15m
Length of Day
13h 19m
Last Quarter, 39% of the Moon is Illuminated
Aug 24
Last Quarter
Aug 30
New
Sep 5
First Quarter
Sep 13
Full
Sep 21
Last Quarter

Hourly Weather History & Observations

Time (CDT) Temp. Dew Point Humidity Pressure Visibility Wind Dir Wind Speed Gust Speed Precip Events Conditions
12:15 AM 65.3 °F 61.5 °F 88% 30.13 in 10.0 mi ENE 4.6 mph - N/A   Clear
12:35 AM 64.9 °F 61.0 °F 87% 30.13 in 10.0 mi ENE 4.6 mph - N/A   Clear
12:55 AM 64.4 °F 60.8 °F 88% 30.13 in 10.0 mi ENE 3.5 mph - N/A   Clear
1:15 AM 63.9 °F 60.8 °F 90% 30.13 in 10.0 mi NE 3.5 mph - N/A   Clear
1:35 AM 63.5 °F 60.4 °F 90% 30.13 in 10.0 mi ENE 3.5 mph - N/A   Clear
1:55 AM 63.5 °F 60.6 °F 90% 30.13 in 10.0 mi NE 3.5 mph - N/A   Clear
2:15 AM 63.5 °F 60.4 °F 90% 30.15 in 10.0 mi NE 3.5 mph - N/A   Clear
2:35 AM 63.5 °F 60.3 °F 89% 30.15 in 10.0 mi NE 4.6 mph - N/A   Clear
3:15 AM 62.8 °F 59.9 °F 90% 30.16 in 10.0 mi NE 3.5 mph - N/A   Clear
3:35 AM 62.4 °F 59.9 °F 91% 30.15 in 10.0 mi ENE 4.6 mph - N/A   Clear
3:55 AM 62.1 °F 59.5 °F 91% 30.15 in 10.0 mi ENE 4.6 mph - N/A   Clear
4:15 AM 61.9 °F 59.4 °F 91% 30.16 in 10.0 mi ENE 3.5 mph - N/A   Clear
4:35 AM 61.7 °F 59.4 °F 92% 30.16 in 10.0 mi ENE 4.6 mph - N/A   Clear
4:55 AM 61.5 °F 59.4 °F 93% 30.16 in 10.0 mi ENE 5.8 mph - N/A   Clear
5:15 AM 61.2 °F 59.0 °F 93% 30.15 in 10.0 mi ENE 5.8 mph - N/A   Clear
5:35 AM 61.2 °F 59.0 °F 93% 30.16 in 10.0 mi ENE 4.6 mph - N/A   Clear
5:55 AM 60.8 °F 58.8 °F 93% 30.16 in 10.0 mi ENE 5.8 mph - N/A   Clear
6:15 AM 60.8 °F 58.5 °F 92% 30.16 in 10.0 mi ENE 5.8 mph - N/A   Clear
6:35 AM 60.8 °F 58.3 °F 91% 30.17 in 10.0 mi ENE 5.8 mph - N/A   Clear
6:55 AM 60.8 °F 58.5 °F 92% 30.18 in 10.0 mi East 3.5 mph - N/A   Clear
7:15 AM 61.3 °F 58.5 °F 90% 30.18 in 10.0 mi East 4.6 mph - N/A   Clear
7:35 AM 62.4 °F 58.8 °F 88% 30.19 in 10.0 mi ENE 3.5 mph - N/A   Clear
7:55 AM 63.7 °F 59.0 °F 85% 30.18 in 10.0 mi ENE 6.9 mph - N/A   Clear
8:15 AM 64.6 °F 58.8 °F 82% 30.19 in 10.0 mi ENE 6.9 mph - N/A   Clear
8:35 AM 66.2 °F 58.6 °F 77% 30.18 in 10.0 mi East 4.6 mph - N/A   Clear
8:55 AM 67.3 °F 58.8 °F 74% 30.18 in 10.0 mi East 8.1 mph - N/A   Clear
9:15 AM 68.9 °F 58.8 °F 70% 30.18 in 10.0 mi East 5.8 mph - N/A   Clear
9:35 AM 70.9 °F 58.6 °F 65% 30.18 in 10.0 mi East 6.9 mph - N/A   Clear
9:55 AM 72.0 °F 58.3 °F 62% 30.18 in 10.0 mi East 5.8 mph - N/A   Clear
10:15 AM 72.5 °F 57.9 °F 60% 30.18 in 10.0 mi East 6.9 mph - N/A   Clear
10:35 AM 73.0 °F 56.7 °F 56% 30.18 in 10.0 mi East 9.2 mph - N/A   Clear
10:55 AM 74.1 °F 57.9 °F 57% 30.17 in 10.0 mi ENE 6.9 mph - N/A   Clear
11:15 AM 73.9 °F 56.3 °F 54% 30.16 in 10.0 mi East 8.1 mph - N/A   Clear
11:35 AM 73.6 °F 55.0 °F 52% 30.16 in 10.0 mi ENE 11.5 mph 17.3 mph N/A   Scattered Clouds
11:55 AM 74.3 °F 54.0 °F 49% 30.16 in 10.0 mi East 11.5 mph 19.6 mph N/A   Scattered Clouds
12:15 PM 74.8 °F 53.2 °F 47% 30.15 in 10.0 mi East 13.8 mph 19.6 mph N/A   Clear
12:35 PM 75.6 °F 55.9 °F 50% 30.15 in 10.0 mi East 10.4 mph 17.3 mph N/A   Clear
12:55 PM 75.4 °F 54.5 °F 48% 30.14 in 10.0 mi East 11.5 mph 17.3 mph N/A   Clear
1:15 PM 76.5 °F 57.4 °F 52% 30.14 in 10.0 mi East 11.5 mph - N/A   Clear
1:35 PM 75.9 °F 55.4 °F 49% 30.13 in 10.0 mi East 9.2 mph - N/A   Clear
1:55 PM 76.3 °F 55.9 °F 49% 30.13 in 10.0 mi East 9.2 mph - N/A   Clear
2:15 PM 76.8 °F 56.5 °F 49% 30.13 in 10.0 mi East 10.4 mph - N/A   Clear
2:55 PM 76.5 °F 55.4 °F 48% 30.11 in 10.0 mi ENE 9.2 mph - N/A   Clear
3:15 PM 77.0 °F 56.8 °F 50% 30.11 in 10.0 mi ESE 9.2 mph - N/A   Scattered Clouds
3:35 PM 76.6 °F 57.0 °F 51% 30.10 in 10.0 mi ENE 9.2 mph - N/A   Scattered Clouds
3:55 PM 77.0 °F 57.4 °F 51% 30.10 in 10.0 mi East 6.9 mph - N/A   Scattered Clouds
4:15 PM 76.8 °F 55.9 °F 48% 30.10 in 10.0 mi East 6.9 mph 17.3 mph N/A   Scattered Clouds
4:35 PM 76.8 °F 56.8 °F 50% 30.09 in 10.0 mi East 10.4 mph - N/A   Clear
4:55 PM 76.6 °F 55.6 °F 48% 30.09 in 10.0 mi East 11.5 mph - N/A   Clear
5:15 PM 76.5 °F 56.1 °F 49% 30.09 in 10.0 mi ENE 8.1 mph - N/A   Clear
5:35 PM 75.4 °F 55.8 °F 50% 30.08 in 10.0 mi East 5.8 mph - N/A   Clear
5:55 PM 74.3 °F 56.7 °F 54% 30.08 in 10.0 mi ENE 6.9 mph - N/A   Clear
6:10 PM 73.9 °F 56.5 °F 54% 30.08 in 10.0 mi ENE 5.8 mph - N/A   Clear
6:35 PM 73.4 °F 57.2 °F 57% 30.08 in 10.0 mi ENE 4.6 mph - N/A   Clear
6:55 PM 72.0 °F 58.5 °F 62% 30.08 in 10.0 mi ENE 3.5 mph - N/A   Clear
7:15 PM 70.2 °F 59.5 °F 69% 30.08 in 10.0 mi NE 3.5 mph - N/A   Clear
7:35 PM 67.6 °F 61.9 °F 82% 30.09 in 10.0 mi Calm Calm - N/A   Clear
7:55 PM 65.7 °F 63.1 °F 92% 30.09 in 10.0 mi Calm Calm - N/A   Clear
8:15 PM 65.3 °F 63.0 °F 92% 30.10 in 10.0 mi Calm Calm - N/A   Clear
8:35 PM 64.4 °F 62.4 °F 93% 30.10 in 10.0 mi Calm Calm - N/A   Clear
8:55 PM 63.3 °F 61.5 °F 94% 30.10 in 10.0 mi Calm Calm - N/A   Clear
9:15 PM 63.5 °F 61.3 °F 93% 30.10 in 10.0 mi Calm Calm - N/A   Clear
9:35 PM 62.6 °F 60.6 °F 93% 30.11 in 10.0 mi Calm Calm - N/A   Clear
9:55 PM 63.7 °F 60.4 °F 89% 30.10 in 10.0 mi Calm Calm - N/A   Clear
10:15 PM 62.6 °F 60.3 °F 92% 30.11 in 10.0 mi Calm Calm - N/A   Clear
10:35 PM 62.1 °F 60.1 °F 93% 30.10 in 10.0 mi Calm Calm - N/A   Clear
10:55 PM 63.3 °F 60.3 °F 90% 30.10 in 10.0 mi NE 3.5 mph - N/A   Scattered Clouds
11:15 PM 64.0 °F 60.1 °F 87% 30.09 in 10.0 mi ENE 5.8 mph - N/A   Scattered Clouds
11:35 PM 64.0 °F 60.6 °F 89% 30.09 in 10.0 mi ENE 3.5 mph - N/A   Scattered Clouds
11:55 PM 64.4 °F 61.0 °F 89% 30.08 in 10.0 mi East 4.6 mph - N/A   Overcast